Flag for France Weather past 2 weeks in Reims, France

Now
36 °F

Partly sunny.


Feels Like: 27 °F
Forecast: 29 / 37 °F
Wind: 12 mph from Southwest

Location: Chalons-Vatry

Current Time: Jan 31, 2015 at 6:46:12 PM

Latest Report: Jan 31, 2015 at 6:00 PM


Visibility: N/A

Pressure: 29.09 "Hg

Humidity: 93%

Dew point: 34 °F

Location of ReimsLocation

Historic Weather in Reims — Graph

°F

Reims temperature yesterday

Maximum temperature yesterday: 36 °F (at 11:00 AM)
Minimum temperature yesterday: 30 °F (at 11:30 PM)
Average temperature yesterday: 34 °F

Past Weeks' High & Low Weather Summary

 TemperatureHumidityPressure
High45 °F (Jan 26, 8:00 PM)100% (Jan 16, 8:00 PM)30.48 "Hg (Jan 16, 8:00 PM)
Low21 °F (Jan 19, 8:00 AM)70% (Jan 18, 2:00 PM)28.82 "Hg (Jan 29, 10:00 PM)
Average34 °F93%29.89 "Hg
* Reported Jan 16 6:00 PM — Jan 31 6:00 PM, Reims, Weather by CustomWeather, © 2014

Note: Actual official high and low records may vary slightly from our data, if they occured in-between our weather recording intervals... More about our weather records

Advertising

Reims weather history for previous 24 hours

 ConditionsComfort  
Time TempWeatherWind HumidityBarometerVisibility
6:00 PM
Jan 31
36 °FPartly sunny.12 mph93%29.09 "HgN/A
5:30 PM36 °FBroken clouds.12 mph93%29.09 "HgN/A
5:00 PM36 °FPartly sunny.10 mph93%29.06 "HgN/A
4:30 PM36 °FRain. Fog.13 mph93%29.06 "Hg2 mi
4:00 PM37 °FOvercast.9 mph87%29.06 "HgN/A
3:30 PM37 °FBroken clouds.9 mph87%29.06 "HgN/A
3:00 PM37 °FScattered clouds.9 mph87%29.06 "HgN/A
2:30 PM37 °FScattered clouds.12 mph87%29.06 "HgN/A
2:00 PM36 °FPartly sunny.9 mph93%29.06 "Hg6 mi
1:30 PM34 °FLow clouds.12 mph93%29.06 "Hg6 mi
1:00 PM34 °FLow clouds.10 mph93%29.06 "Hg6 mi
12:30 PM34 °FLow clouds.9 mph100%29.06 "Hg5 mi
12:00 PM34 °FFog.9 mph100%29.06 "Hg2 mi
11:30 AM34 °FDense fog.8 mph100%29.06 "Hg1 mi
11:00 AM34 °FFog.12 mph93%29.06 "Hg1 mi
10:30 AM34 °FDense fog.6 mph93%29.06 "Hg1 mi
10:00 AM32 °FFog.8 mph100%29.03 "Hg1 mi
9:30 AM32 °FFog.9 mph100%29.03 "Hg1 mi
9:00 AM32 °FDense fog.9 mph100%29.03 "Hg1 mi
8:30 AM32 °FFog.7 mph100%29.03 "Hg0 mi
8:00 AM32 °FLow clouds.6 mph100%29.00 "Hg1 mi
7:30 AM32 °FLight rain. Low clouds.6 mph100%29.00 "Hg4 mi
7:00 AM32 °FLight snow. Ice fog.7 mph100%29.00 "Hg1 mi
6:30 AM32 °FHeavy snow. Fog.5 mph100%29.00 "Hg1 mi
6:00 AM32 °FHeavy snow. Fog.7 mph100%29.00 "Hg1 mi
5:30 AM32 °FHeavy snow. Partly cloudy.8 mph100%29.00 "Hg1 mi
5:00 AM32 °FMostly cloudy.8 mph100%29.00 "HgN/A
4:00 AM32 °FOvercast.9 mph100%29.00 "HgN/A
3:30 AM32 °FPassing clouds.8 mph100%29.00 "HgN/A
3:00 AM32 °FMostly cloudy.9 mph100%29.00 "HgN/A
2:30 AM32 °FClear.10 mph100%29.00 "HgN/A
2:00 AM32 °FClear.9 mph100%29.00 "HgN/A
1:30 AM32 °FClear.9 mph93%29.00 "HgN/A
1:00 AM32 °FClear.9 mph93%29.00 "HgN/A
12:30 AM32 °FPassing clouds.8 mph93%29.00 "HgN/A
12:00 AM32 °FPassing clouds.8 mph93%29.00 "HgN/A
11:30 PM
Jan 30
30 °FPassing clouds.7 mph100%29.00 "HgN/A
11:00 PM32 °FClear.6 mph93%29.00 "HgN/A
10:00 PM34 °FPartly cloudy.8 mph93%29.00 "HgN/A
9:30 PM34 °FPartly cloudy.8 mph93%29.00 "HgN/A
9:00 PM34 °FOvercast.5 mph93%28.97 "HgN/A
8:30 PM36 °FOvercast.8 mph87%28.97 "HgN/A
8:00 PM36 °FOvercast.9 mph87%28.97 "HgN/A
7:30 PM36 °FOvercast.9 mph93%28.97 "HgN/A
7:00 PM36 °FOvercast.12 mph93%28.97 "HgN/A
6:30 PM36 °FLow clouds.13 mph93%28.94 "HgN/A
6:00 PM36 °FMostly cloudy.13 mph93%28.94 "HgN/A
Weather by CustomWeather, © 2014

See weather overviewHow to use our weather pages